Time,TemperatureF,DewpointF,PressureIn,WindDirection,WindDirectionDegrees,WindSpeedMPH,WindSpeedGustMPH,Humidity,HourlyPrecipIn,Conditions,Clouds,dailyrainin,SoftwareType,DateUTC
2013-06-14 00:00:00,59.0,57.6,29.90,SW,225,0.0,2.0,95,0.00,,---,0.00,VWS V14.01,2013-06-14 07:00:00,
2013-06-14 00:03:00,59.4,58.0,29.90,SW,229,1.0,1.0,95,0.00,,,0.00,weatherlink.com 1.10,2013-06-14 07:03:00,
2013-06-14 00:15:00,59.9,58.5,29.89,SW,225,0.0,2.0,95,0.00,,---,0.00,VWS V14.01,2013-06-14 07:15:00,
2013-06-14 00:18:00,59.9,58.0,29.89,SW,229,0.0,1.0,94,0.00,,,0.00,weatherlink.com 1.10,2013-06-14 07:18:00,
2013-06-14 00:30:00,59.9,58.5,29.89,SW,225,0.0,2.0,95,0.00,,---,0.00,VWS V14.01,2013-06-14 07:30:00,
2013-06-14 00:33:00,60.0,58.0,29.89,SW,229,0.0,2.0,94,0.00,,,0.00,weatherlink.com 1.10,2013-06-14 07:33:00,
2013-06-14 00:45:00,60.0,58.3,29.89,SW,225,0.0,2.0,94,0.00,,---,0.00,VWS V14.01,2013-06-14 07:45:00,
2013-06-14 00:48:00,60.0,58.0,29.89,SW,229,0.0,1.0,94,0.00,,,0.00,weatherlink.com 1.10,2013-06-14 07:48:00,
2013-06-14 01:00:00,59.8,58.1,29.89,SW,225,0.0,1.0,94,0.00,,---,0.00,VWS V14.01,2013-06-14 08:00:00,
2013-06-14 01:03:00,59.7,58.0,29.89,SW,229,0.0,1.0,94,0.00,,,0.00,weatherlink.com 1.10,2013-06-14 08:03:00,
2013-06-14 01:15:00,59.4,57.7,29.89,SW,225,0.0,0.0,94,0.00,,---,0.00,VWS V14.01,2013-06-14 08:15:00,
2013-06-14 01:18:00,59.5,58.0,29.88,SW,229,0.0,1.0,95,0.00,,,0.00,weatherlink.com 1.10,2013-06-14 08:18:00,
2013-06-14 01:30:00,60.1,59.0,29.88,South,180,0.0,2.0,96,0.00,,---,0.00,VWS V14.01,2013-06-14 08:30:00,
2013-06-14 01:33:00,60.4,59.0,29.88,SSE,163,1.0,2.0,96,0.00,,,0.00,weatherlink.com 1.10,2013-06-14 08:33:00,
2013-06-14 01:45:00,60.8,59.4,29.88,ESE,112,0.0,3.0,95,0.00,,---,0.00,VWS V14.01,2013-06-14 08:45:00,
2013-06-14 01:48:00,60.9,60.0,29.88,ESE,113,0.0,1.0,95,0.00,,,0.00,weatherlink.com 1.10,2013-06-14 08:48:00,
2013-06-14 02:00:00,61.1,59.7,29.88,ESE,112,0.0,2.0,95,0.00,,---,0.00,VWS V14.01,2013-06-14 09:00:00,
2013-06-14 02:03:00,61.2,60.0,29.88,ESE,118,0.0,3.0,94,0.00,,,0.00,weatherlink.com 1.10,2013-06-14 09:03:00,
2013-06-14 02:15:00,61.4,59.7,29.88,ESE,112,1.0,3.0,94,0.00,,---,0.00,VWS V14.01,2013-06-14 09:15:00,
2013-06-14 02:18:00,61.4,60.0,29.88,South,170,1.0,3.0,94,0.00,,,0.00,weatherlink.com 1.10,2013-06-14 09:18:00,
2013-06-14 02:30:00,61.6,59.6,29.88,South,180,0.0,3.0,93,0.00,,---,0.00,VWS V14.01,2013-06-14 09:30:00,
2013-06-14 02:34:00,61.7,60.0,29.88,South,170,0.0,1.0,93,0.00,,,0.00,weatherlink.com 1.10,2013-06-14 09:34:00,
2013-06-14 02:45:00,61.8,59.8,29.88,South,180,0.0,3.0,93,0.00,,---,0.00,VWS V14.01,2013-06-14 09:45:00,
2013-06-14 02:49:00,61.8,60.0,29.88,South,186,0.0,4.0,93,0.00,,,0.00,weatherlink.com 1.10,2013-06-14 09:49:00,
2013-06-14 03:00:00,61.9,59.5,29.88,South,180,1.0,4.0,92,0.00,,---,0.00,VWS V14.01,2013-06-14 10:00:00,
2013-06-14 03:04:00,62.0,60.0,29.88,South,186,1.0,2.0,92,0.00,,,0.00,weatherlink.com 1.10,2013-06-14 10:04:00,
2013-06-14 03:15:00,62.1,59.8,29.88,South,180,0.0,5.0,92,0.00,,---,0.00,VWS V14.01,2013-06-14 10:15:00,
2013-06-14 03:19:00,62.1,60.0,29.88,South,184,0.0,2.0,92,0.00,,,0.00,weatherlink.com 1.10,2013-06-14 10:19:00,
2013-06-14 03:30:00,62.2,59.8,29.88,South,180,0.0,2.0,92,0.00,,---,0.00,VWS V14.01,2013-06-14 10:30:00,
2013-06-14 03:34:00,62.2,60.0,29.88,SSE,166,0.0,2.0,92,0.00,,,0.00,weatherlink.com 1.10,2013-06-14 10:34:00,
2013-06-14 03:45:00,62.2,59.8,29.88,SSE,158,0.0,1.0,92,0.00,,---,0.00,VWS V14.01,2013-06-14 10:45:00,
2013-06-14 03:49:00,62.2,60.0,29.88,SSE,166,0.0,1.0,92,0.00,,,0.00,weatherlink.com 1.10,2013-06-14 10:49:00,
2013-06-14 04:00:00,62.2,59.8,29.88,ESE,112,0.0,5.0,92,0.00,,---,0.00,VWS V14.01,2013-06-14 11:00:00,
2013-06-14 04:04:00,62.2,60.0,29.88,ESE,106,1.0,2.0,91,0.00,,,0.00,weatherlink.com 1.10,2013-06-14 11:04:00,
2013-06-14 04:15:00,62.3,59.6,29.88,ESE,112,0.0,3.0,91,0.00,,---,0.00,VWS V14.01,2013-06-14 11:15:00,
2013-06-14 04:19:00,62.3,60.0,29.88,South,186,0.0,3.0,91,0.00,,,0.00,weatherlink.com 1.10,2013-06-14 11:19:00,
2013-06-14 04:30:00,62.3,59.6,29.88,South,180,0.0,3.0,91,0.00,,---,0.00,VWS V14.01,2013-06-14 11:30:00,
2013-06-14 04:34:00,62.3,60.0,29.88,SE,132,0.0,3.0,91,0.00,,,0.00,weatherlink.com 1.10,2013-06-14 11:34:00,
2013-06-14 04:45:00,62.4,59.7,29.88,SE,135,0.0,2.0,91,0.00,,---,0.00,VWS V14.01,2013-06-14 11:45:00,
2013-06-14 04:49:00,62.4,60.0,29.88,SE,132,0.0,1.0,91,0.00,,,0.00,weatherlink.com 1.10,2013-06-14 11:49:00,
2013-06-14 05:00:00,62.5,59.8,29.88,SE,135,1.0,3.0,91,0.00,,---,0.00,VWS V14.01,2013-06-14 12:00:00,
2013-06-14 05:04:00,62.6,60.0,29.88,ESE,103,0.0,3.0,91,0.00,,,0.00,weatherlink.com 1.10,2013-06-14 12:04:00,
2013-06-14 05:15:00,62.6,59.6,29.88,ESE,112,0.0,2.0,90,0.00,,---,0.00,VWS V14.01,2013-06-14 12:15:00,
2013-06-14 05:19:00,62.6,60.0,29.88,SE,133,0.0,2.0,90,0.00,,,0.00,weatherlink.com 1.10,2013-06-14 12:19:00,
2013-06-14 05:30:00,62.6,59.3,29.89,ESE,112,0.0,3.0,89,0.00,,---,0.00,VWS V14.01,2013-06-14 12:30:00,
2013-06-14 05:34:00,62.6,59.0,29.89,ESE,119,0.0,3.0,89,0.00,,,0.00,weatherlink.com 1.10,2013-06-14 12:34:00,
2013-06-14 05:45:00,62.5,59.2,29.89,SSE,158,0.0,3.0,89,0.00,,---,0.00,VWS V14.01,2013-06-14 12:45:00,
2013-06-14 05:49:00,62.5,59.0,29.89,South,178,2.0,3.0,88,0.00,,,0.00,weatherlink.com 1.10,2013-06-14 12:49:00,
2013-06-14 06:00:00,62.5,58.9,29.89,South,180,1.0,3.0,88,0.00,,---,0.00,VWS V14.01,2013-06-14 13:00:00,
2013-06-14 06:04:00,62.5,59.0,29.89,ESE,109,3.0,4.0,88,0.00,,,0.00,weatherlink.com 1.10,2013-06-14 13:04:00,
2013-06-14 06:15:00,62.6,59.0,29.89,ESE,112,1.0,5.0,88,0.00,,---,0.00,VWS V14.01,2013-06-14 13:15:00,
2013-06-14 06:19:00,62.6,59.0,29.89,SE,132,2.0,2.0,88,0.00,,,0.00,weatherlink.com 1.10,2013-06-14 13:19:00,
2013-06-14 06:30:00,62.7,59.1,29.89,SE,135,1.0,3.0,88,0.00,,---,0.00,VWS V14.01,2013-06-14 13:30:00,
2013-06-14 06:34:00,62.8,59.0,29.89,SSE,159,0.0,3.0,87,0.00,,,0.00,weatherlink.com 1.10,2013-06-14 13:34:00,
2013-06-14 06:45:00,62.9,59.3,29.89,SSW,202,0.0,4.0,88,0.00,,---,0.00,VWS V14.01,2013-06-14 13:45:00,
2013-06-14 06:49:00,63.0,59.0,29.89,East,79,1.0,4.0,87,0.00,,,0.00,weatherlink.com 1.10,2013-06-14 13:49:00,
2013-06-14 07:00:00,63.2,59.3,29.89,ESE,112,1.0,4.0,87,0.00,,---,0.00,VWS V14.01,2013-06-14 14:00:00,
2013-06-14 07:04:00,63.2,59.0,29.89,South,175,1.0,3.0,87,0.00,,,0.00,weatherlink.com 1.10,2013-06-14 14:04:00,
2013-06-14 07:15:00,63.3,59.0,29.89,SSE,158,0.0,3.0,86,0.00,,---,0.00,VWS V14.01,2013-06-14 14:15:00,
2013-06-14 07:19:00,63.4,59.0,29.89,SSE,156,1.0,3.0,86,0.00,,,0.00,weatherlink.com 1.10,2013-06-14 14:19:00,
2013-06-14 07:30:00,63.5,59.2,29.90,SSE,158,1.0,4.0,86,0.00,,---,0.00,VWS V14.01,2013-06-14 14:30:00,
2013-06-14 07:34:00,63.6,59.0,29.90,SE,136,2.0,4.0,85,0.00,,,0.00,weatherlink.com 1.10,2013-06-14 14:34:00,
2013-06-14 07:45:00,63.8,59.2,29.90,South,180,1.0,4.0,85,0.00,,---,0.00,VWS V14.01,2013-06-14 14:45:00,
2013-06-14 07:49:00,63.9,59.0,29.90,South,178,0.0,2.0,85,0.00,,,0.00,weatherlink.com 1.10,2013-06-14 14:49:00,
2013-06-14 08:00:00,64.1,59.2,29.90,South,180,0.0,4.0,84,0.00,,---,0.00,VWS V14.01,2013-06-14 15:00:00,
2013-06-14 08:04:00,64.3,59.0,29.90,SSE,165,1.0,3.0,84,0.00,,,0.00,weatherlink.com 1.10,2013-06-14 15:04:00,
2013-06-14 08:15:00,64.6,59.7,29.90,SSE,158,0.0,3.0,84,0.00,,---,0.00,VWS V14.01,2013-06-14 15:15:00,
2013-06-14 08:19:00,64.7,60.0,29.90,ESE,104,0.0,6.0,84,0.00,,,0.00,weatherlink.com 1.10,2013-06-14 15:19:00,
2013-06-14 08:30:00,64.8,59.5,29.90,ESE,112,1.0,6.0,83,0.00,,---,0.00,VWS V14.01,2013-06-14 15:30:00,
2013-06-14 08:34:00,64.9,60.0,29.91,South,181,3.0,4.0,83,0.00,,,0.00,weatherlink.com 1.10,2013-06-14 15:34:00,
2013-06-14 08:45:00,65.0,59.7,29.90,South,180,1.0,4.0,83,0.00,,---,0.00,VWS V14.01,2013-06-14 15:45:00,
2013-06-14 08:49:00,65.2,60.0,29.90,South,189,3.0,3.0,83,0.00,,,0.00,weatherlink.com 1.10,2013-06-14 15:49:00,
2013-06-14 09:00:00,65.3,60.0,29.91,South,180,1.0,4.0,83,0.00,,---,0.00,VWS V14.01,2013-06-14 16:00:00,
2013-06-14 09:04:00,65.4,60.0,29.90,ESE,113,3.0,5.0,82,0.00,,,0.00,weatherlink.com 1.10,2013-06-14 16:04:00,
2013-06-14 09:15:00,65.7,60.1,29.90,South,180,1.0,5.0,82,0.00,,---,0.00,VWS V14.01,2013-06-14 16:15:00,
2013-06-14 09:19:00,65.9,60.0,29.90,East,96,1.0,5.0,82,0.00,,,0.00,weatherlink.com 1.10,2013-06-14 16:19:00,
2013-06-14 09:30:00,66.1,60.1,29.90,South,180,1.0,5.0,81,0.00,,---,0.00,VWS V14.01,2013-06-14 16:30:00,
2013-06-14 09:34:00,66.1,60.0,29.90,South,170,1.0,5.0,81,0.00,,,0.00,weatherlink.com 1.10,2013-06-14 16:34:00,
2013-06-14 09:45:00,66.3,60.3,29.90,South,180,2.0,5.0,81,0.00,,---,0.00,VWS V14.01,2013-06-14 16:45:00,
2013-06-14 09:49:00,66.4,60.0,29.90,South,173,1.0,5.0,81,0.00,,,0.00,weatherlink.com 1.10,2013-06-14 16:49:00,
2013-06-14 10:00:00,66.6,60.2,29.90,South,180,1.0,5.0,80,0.00,,---,0.00,VWS V14.01,2013-06-14 17:00:00,
2013-06-14 10:04:00,66.8,60.0,29.90,South,186,1.0,4.0,80,0.00,,,0.00,weatherlink.com 1.10,2013-06-14 17:04:00,
2013-06-14 10:15:00,67.0,60.3,29.90,South,180,2.0,7.0,79,0.00,,---,0.00,VWS V14.01,2013-06-14 17:15:00,
2013-06-14 10:19:00,67.3,61.0,29.90,SE,126,2.0,7.0,80,0.00,,,0.00,weatherlink.com 1.10,2013-06-14 17:19:00,
2013-06-14 10:30:00,67.6,60.5,29.90,South,180,1.0,7.0,78,0.00,,---,0.00,VWS V14.01,2013-06-14 17:30:00,
2013-06-14 10:34:00,67.6,61.0,29.90,SSE,165,3.0,6.0,78,0.00,,,0.00,weatherlink.com 1.10,2013-06-14 17:34:00,
2013-06-14 10:45:00,67.8,61.1,29.90,South,180,2.0,8.0,79,0.00,,---,0.00,VWS V14.01,2013-06-14 17:45:00,
2013-06-14 10:49:00,68.2,61.0,29.90,SSW,202,3.0,6.0,77,0.00,,,0.00,weatherlink.com 1.10,2013-06-14 17:49:00,
2013-06-14 11:00:00,68.6,60.7,29.90,South,180,2.0,6.0,76,0.00,,---,0.00,VWS V14.01,2013-06-14 18:00:00,
2013-06-14 11:04:00,69.0,61.0,29.90,South,189,5.0,10.0,76,0.00,,,0.00,weatherlink.com 1.10,2013-06-14 18:04:00,
2013-06-14 11:15:00,69.1,60.5,29.90,South,180,3.0,10.0,74,0.00,,---,0.00,VWS V14.01,2013-06-14 18:15:00,
2013-06-14 11:19:00,69.2,61.0,29.90,SSW,212,10.0,11.0,74,0.00,,,0.00,weatherlink.com 1.10,2013-06-14 18:19:00,
2013-06-14 11:30:00,69.5,60.9,29.90,South,180,4.0,11.0,74,0.00,,---,0.00,VWS V14.01,2013-06-14 18:30:00,
2013-06-14 11:34:00,69.9,61.0,29.90,SSW,196,6.0,9.0,73,0.00,,,0.00,weatherlink.com 1.10,2013-06-14 18:34:00,
2013-06-14 11:45:00,70.4,61.0,29.90,South,180,4.0,11.0,72,0.00,,---,0.00,VWS V14.01,2013-06-14 18:45:00,
2013-06-14 11:49:00,70.5,61.0,29.90,South,181,1.0,11.0,72,0.00,,,0.00,weatherlink.com 1.10,2013-06-14 18:49:00,
2013-06-14 12:00:00,70.7,60.8,29.90,SSW,202,4.0,9.0,71,0.00,,---,0.00,VWS V14.01,2013-06-14 19:00:00,
2013-06-14 12:04:00,70.9,61.0,29.89,ENE,65,2.0,9.0,71,0.00,,,0.00,weatherlink.com 1.10,2013-06-14 19:04:00,
2013-06-14 12:15:00,71.1,61.2,29.89,SSW,202,3.0,9.0,71,0.00,,---,0.00,VWS V14.01,2013-06-14 19:15:00,
2013-06-14 12:20:00,71.7,62.0,29.89,SSW,199,1.0,7.0,72,0.00,,,0.00,weatherlink.com 1.10,2013-06-14 19:20:00,
2013-06-14 12:30:00,72.2,61.9,29.89,SSW,202,3.0,8.0,70,0.00,,---,0.00,VWS V14.01,2013-06-14 19:30:00,
2013-06-14 12:35:00,72.5,62.0,29.89,West,259,5.0,8.0,69,0.00,,,0.00,weatherlink.com 1.10,2013-06-14 19:35:00,
2013-06-14 12:45:00,72.2,61.5,29.89,South,180,4.0,8.0,69,0.00,,---,0.00,VWS V14.01,2013-06-14 19:45:00,
2013-06-14 12:50:00,71.8,61.0,29.89,SW,218,5.0,8.0,69,0.00,,,0.00,weatherlink.com 1.10,2013-06-14 19:50:00,
2013-06-14 13:00:00,71.8,61.5,29.89,SSW,202,4.0,10.0,70,0.00,,---,0.00,VWS V14.01,2013-06-14 20:00:00,
2013-06-14 13:05:00,72.1,61.0,29.88,WSW,247,2.0,10.0,69,0.00,,,0.00,weatherlink.com 1.10,2013-06-14 20:05:00,
2013-06-14 13:15:00,72.7,62.0,29.88,SSW,202,4.0,10.0,69,0.00,,---,0.00,VWS V14.01,2013-06-14 20:15:00,
2013-06-14 13:20:00,72.8,62.0,29.88,SSW,204,2.0,9.0,69,0.00,,,0.00,weatherlink.com 1.10,2013-06-14 20:20:00,
2013-06-14 13:30:00,72.9,61.3,29.88,SSW,202,5.0,15.0,67,0.00,,---,0.00,VWS V14.01,2013-06-14 20:30:00,
2013-06-14 13:35:00,72.8,61.0,29.88,SW,215,6.0,10.0,67,0.00,,,0.00,weatherlink.com 1.10,2013-06-14 20:35:00,
2013-06-14 13:45:00,73.0,61.4,29.87,South,180,5.0,10.0,67,0.00,,---,0.00,VWS V14.01,2013-06-14 20:45:00,
2013-06-14 13:50:00,72.6,61.0,29.87,SSE,164,4.0,9.0,68,0.00,,,0.00,weatherlink.com 1.10,2013-06-14 20:50:00,
2013-06-14 14:00:00,72.4,62.1,29.87,SSW,202,4.0,11.0,70,0.00,,---,0.00,VWS V14.01,2013-06-14 21:00:00,
2013-06-14 14:05:00,72.7,61.0,29.87,West,261,5.0,11.0,67,0.00,,,0.00,weatherlink.com 1.10,2013-06-14 21:05:00,
2013-06-14 14:15:00,72.6,61.4,29.87,SSW,202,5.0,12.0,68,0.00,,---,0.00,VWS V14.01,2013-06-14 21:15:00,
2013-06-14 14:20:00,72.6,61.0,29.87,SW,235,4.0,8.0,68,0.00,,,0.00,weatherlink.com 1.10,2013-06-14 21:20:00,
2013-06-14 14:30:00,72.5,60.9,29.87,SSW,202,4.0,13.0,67,0.00,,---,0.00,VWS V14.01,2013-06-14 21:30:00,
2013-06-14 14:35:00,72.4,61.0,29.86,SSW,202,2.0,13.0,68,0.00,,,0.00,weatherlink.com 1.10,2013-06-14 21:35:00,
2013-06-14 14:45:00,72.5,61.3,29.86,SSW,202,5.0,12.0,68,0.00,,---,0.00,VWS V14.01,2013-06-14 21:45:00,
2013-06-14 14:50:00,72.2,61.0,29.86,SW,214,1.0,12.0,68,0.00,,,0.00,weatherlink.com 1.10,2013-06-14 21:50:00,
2013-06-14 15:00:00,72.2,61.1,29.86,SSW,202,6.0,13.0,68,0.00,,---,0.00,VWS V14.01,2013-06-14 22:00:00,
2013-06-14 15:05:00,72.2,61.0,29.86,SSW,197,5.0,12.0,68,0.00,,,0.00,weatherlink.com 1.10,2013-06-14 22:05:00,
2013-06-14 15:15:00,72.3,60.7,29.86,SSW,202,5.0,12.0,67,0.00,,---,0.00,VWS V14.01,2013-06-14 22:15:00,
2013-06-14 15:20:00,72.4,61.0,29.86,South,179,7.0,11.0,68,0.00,,,0.00,weatherlink.com 1.10,2013-06-14 22:20:00,
2013-06-14 15:30:00,72.6,60.6,29.86,SSW,202,5.0,11.0,66,0.00,,---,0.00,VWS V14.01,2013-06-14 22:30:00,
2013-06-14 15:35:00,72.0,61.0,29.86,SSW,196,7.0,13.0,68,0.00,,,0.00,weatherlink.com 1.10,2013-06-14 22:35:00,
2013-06-14 15:45:00,71.6,60.5,29.86,SSW,202,5.0,13.0,68,0.00,,---,0.00,VWS V14.01,2013-06-14 22:45:00,
2013-06-14 15:50:00,71.7,61.0,29.86,SSW,199,5.0,13.0,68,0.00,,,0.00,weatherlink.com 1.10,2013-06-14 22:50:00,
2013-06-14 16:00:00,71.5,60.4,29.85,SSW,202,4.0,13.0,68,0.00,,---,0.00,VWS V14.01,2013-06-14 23:00:00,
2013-06-14 16:05:00,71.5,60.0,29.85,SSW,213,3.0,12.0,68,0.00,,,0.00,weatherlink.com 1.10,2013-06-14 23:05:00,
2013-06-14 16:15:00,71.4,59.9,29.85,SSW,202,5.0,12.0,67,0.00,,---,0.00,VWS V14.01,2013-06-14 23:15:00,
2013-06-14 16:20:00,71.2,60.0,29.85,SSW,212,2.0,12.0,68,0.00,,,0.00,weatherlink.com 1.10,2013-06-14 23:20:00,
2013-06-14 16:30:00,71.1,60.0,29.85,SSW,202,5.0,12.0,68,0.00,,---,0.00,VWS V14.01,2013-06-14 23:30:00,
2013-06-14 16:36:00,70.6,60.0,29.85,SE,138,2.0,11.0,69,0.00,,,0.00,weatherlink.com 1.10,2013-06-14 23:36:00,
2013-06-14 16:45:00,70.9,59.8,29.84,South,180,4.0,11.0,68,0.00,,---,0.00,VWS V14.01,2013-06-14 23:45:00,
2013-06-14 16:50:00,70.8,60.0,29.84,South,188,6.0,8.0,68,0.00,,,0.00,weatherlink.com 1.10,2013-06-14 23:50:00,
2013-06-14 17:00:00,70.7,60.0,29.84,SSW,202,4.0,12.0,69,0.00,,---,0.00,VWS V14.01,2013-06-15 00:00:00,
2013-06-14 17:05:00,70.4,60.0,29.84,South,180,3.0,12.0,69,0.00,,,0.00,weatherlink.com 1.10,2013-06-15 00:05:00,
2013-06-14 17:15:00,70.2,59.6,29.84,South,180,4.0,12.0,69,0.00,,---,0.00,VWS V14.01,2013-06-15 00:15:00,
2013-06-14 17:20:00,69.9,59.0,29.84,South,170,3.0,8.0,69,0.00,,,0.00,weatherlink.com 1.10,2013-06-15 00:20:00,
2013-06-14 17:30:00,69.4,59.6,29.84,South,180,4.0,9.0,71,0.00,,---,0.00,VWS V14.01,2013-06-15 00:30:00,
2013-06-14 17:35:00,69.4,60.0,29.84,SSW,211,5.0,8.0,71,0.00,,,0.00,weatherlink.com 1.10,2013-06-15 00:35:00,
2013-06-14 17:45:00,69.5,59.7,29.84,South,180,4.0,11.0,71,0.00,,---,0.00,VWS V14.01,2013-06-15 00:45:00,
2013-06-14 17:50:00,69.4,60.0,29.84,West,259,6.0,8.0,71,0.00,,,0.00,weatherlink.com 1.10,2013-06-15 00:50:00,
2013-06-14 18:00:00,68.9,59.1,29.84,SSW,202,4.0,8.0,71,0.00,,---,0.00,VWS V14.01,2013-06-15 01:00:00,
2013-06-14 18:05:00,68.7,59.0,29.84,SSW,192,2.0,8.0,72,0.00,,,0.00,weatherlink.com 1.10,2013-06-15 01:05:00,
2013-06-14 18:15:00,68.5,59.1,29.84,South,180,4.0,9.0,72,0.00,,---,0.00,VWS V14.01,2013-06-15 01:15:00,
2013-06-14 18:21:00,68.4,59.0,29.84,SSW,202,7.0,7.0,72,0.00,,,0.00,weatherlink.com 1.10,2013-06-15 01:21:00,
2013-06-14 18:30:00,68.3,59.3,29.84,South,180,3.0,8.0,73,0.00,,---,0.00,VWS V14.01,2013-06-15 01:30:00,
2013-06-14 18:35:00,68.4,59.0,29.84,South,190,1.0,7.0,72,0.00,,,0.00,weatherlink.com 1.10,2013-06-15 01:35:00,
2013-06-14 18:45:00,68.2,58.8,29.84,SSW,202,2.0,8.0,72,0.00,,---,0.00,VWS V14.01,2013-06-15 01:45:00,
2013-06-14 18:50:00,67.6,59.0,29.84,South,189,4.0,7.0,73,0.00,,,0.00,weatherlink.com 1.10,2013-06-15 01:50:00,
2013-06-14 19:00:00,67.1,58.9,29.84,South,180,3.0,8.0,75,0.00,,---,0.00,VWS V14.01,2013-06-15 02:00:00,
2013-06-14 19:05:00,66.8,59.0,29.84,South,183,5.0,9.0,75,0.00,,,0.00,weatherlink.com 1.10,2013-06-15 02:05:00,
2013-06-14 19:15:00,66.2,58.4,29.85,South,180,3.0,9.0,76,0.00,,---,0.00,VWS V14.01,2013-06-15 02:15:00,
2013-06-14 19:20:00,65.4,58.0,29.85,SW,234,3.0,8.0,77,0.00,,,0.00,weatherlink.com 1.10,2013-06-15 02:20:00,
2013-06-14 19:30:00,64.6,58.0,29.84,SSW,202,3.0,8.0,79,0.00,,---,0.00,VWS V14.01,2013-06-15 02:30:00,
2013-06-14 19:35:00,64.0,58.0,29.85,SSW,198,2.0,7.0,80,0.00,,,0.00,weatherlink.com 1.10,2013-06-15 02:35:00,
2013-06-14 19:45:00,63.6,57.7,29.85,SSW,202,2.0,7.0,81,0.00,,---,0.00,VWS V14.01,2013-06-15 02:45:00,
2013-06-14 19:50:00,63.3,58.0,29.85,South,182,3.0,7.0,82,0.00,,,0.00,weatherlink.com 1.10,2013-06-15 02:50:00,
2013-06-14 20:00:00,63.1,57.5,29.85,South,180,2.0,7.0,82,0.00,,---,0.00,VWS V14.01,2013-06-15 03:00:00,
2013-06-14 20:05:00,62.8,58.0,29.85,South,182,2.0,7.0,83,0.00,,,0.00,weatherlink.com 1.10,2013-06-15 03:05:00,
2013-06-14 20:15:00,62.5,57.6,29.85,South,180,2.0,7.0,84,0.00,,---,0.00,VWS V14.01,2013-06-15 03:15:00,
2013-06-14 20:20:00,62.4,58.0,29.85,SSW,200,0.0,4.0,84,0.00,,,0.00,weatherlink.com 1.10,2013-06-15 03:20:00,
2013-06-14 20:30:00,62.2,57.6,29.85,South,180,0.0,3.0,85,0.00,,---,0.00,VWS V14.01,2013-06-15 03:30:00,
2013-06-14 20:35:00,62.0,58.0,29.86,South,186,0.0,3.0,85,0.00,,,0.00,weatherlink.com 1.10,2013-06-15 03:35:00,
2013-06-14 20:45:00,61.8,57.2,29.86,South,180,0.0,3.0,85,0.00,,---,0.00,VWS V14.01,2013-06-15 03:45:00,
2013-06-14 20:50:00,61.6,57.0,29.86,South,182,1.0,4.0,86,0.00,,,0.00,weatherlink.com 1.10,2013-06-15 03:50:00,
2013-06-14 21:00:00,61.5,57.3,29.86,South,180,1.0,4.0,86,0.00,,---,0.00,VWS V14.01,2013-06-15 04:00:00,
2013-06-14 21:05:00,61.4,57.0,29.86,South,171,1.0,2.0,86,0.00,,,0.00,weatherlink.com 1.10,2013-06-15 04:05:00,
2013-06-14 21:15:00,61.2,57.3,29.86,South,180,0.0,4.0,87,0.00,,---,0.00,VWS V14.01,2013-06-15 04:15:00,
2013-06-14 21:20:00,61.1,57.0,29.86,South,191,0.0,4.0,87,0.00,,,0.00,weatherlink.com 1.10,2013-06-15 04:20:00,
2013-06-14 21:30:00,61.0,57.1,29.87,South,180,1.0,4.0,87,0.00,,---,0.00,VWS V14.01,2013-06-15 04:30:00,
2013-06-14 21:35:00,60.9,57.0,29.87,South,184,0.0,5.0,87,0.00,,,0.00,weatherlink.com 1.10,2013-06-15 04:35:00,
2013-06-14 21:45:00,60.8,56.9,29.87,South,180,0.0,5.0,87,0.00,,---,0.00,VWS V14.01,2013-06-15 04:45:00,
2013-06-14 21:50:00,60.8,57.0,29.88,South,181,2.0,4.0,87,0.00,,,0.00,weatherlink.com 1.10,2013-06-15 04:50:00,
2013-06-14 22:00:00,60.7,56.8,29.88,South,180,0.0,4.0,87,0.00,,---,0.00,VWS V14.01,2013-06-15 05:00:00,
2013-06-14 22:05:00,60.6,57.0,29.88,South,191,0.0,4.0,88,0.00,,,0.00,weatherlink.com 1.10,2013-06-15 05:05:00,
2013-06-14 22:15:00,60.6,56.7,29.88,SSW,202,1.0,4.0,87,0.00,,---,0.00,VWS V14.01,2013-06-15 05:15:00,
2013-06-14 22:20:00,60.5,57.0,29.88,South,190,1.0,4.0,87,0.00,,,0.00,weatherlink.com 1.10,2013-06-15 05:20:00,
2013-06-14 22:30:00,60.5,56.9,29.88,South,180,1.0,4.0,88,0.00,,---,0.00,VWS V14.01,2013-06-15 05:30:00,
2013-06-14 22:35:00,60.4,57.0,29.88,South,169,2.0,4.0,88,0.00,,,0.00,weatherlink.com 1.10,2013-06-15 05:35:00,
2013-06-14 22:45:00,60.4,56.8,29.88,South,180,0.0,4.0,88,0.00,,---,0.00,VWS V14.01,2013-06-15 05:45:00,
2013-06-14 22:50:00,60.3,57.0,29.88,SSE,163,0.0,3.0,88,0.00,,,0.00,weatherlink.com 1.10,2013-06-15 05:50:00,
2013-06-14 23:00:00,60.2,56.6,29.88,SSE,158,0.0,3.0,88,0.00,,---,0.00,VWS V14.01,2013-06-15 06:00:00,
2013-06-14 23:05:00,60.1,57.0,29.88,SSE,163,0.0,2.0,88,0.00,,,0.00,weatherlink.com 1.10,2013-06-15 06:05:00,
2013-06-14 23:15:00,60.0,56.4,29.88,SSE,158,0.0,2.0,88,0.00,,---,0.00,VWS V14.01,2013-06-15 06:15:00,
2013-06-14 23:20:00,60.1,57.0,29.88,SE,130,0.0,2.0,89,0.00,,,0.00,weatherlink.com 1.10,2013-06-15 06:20:00,
2013-06-14 23:30:00,60.3,57.0,29.88,SE,135,0.0,2.0,89,0.00,,---,0.00,VWS V14.01,2013-06-15 06:30:00,
2013-06-14 23:35:00,60.5,57.0,29.88,ESE,111,2.0,3.0,88,0.00,,,0.00,weatherlink.com 1.10,2013-06-15 06:35:00,
2013-06-14 23:45:00,60.7,57.1,29.88,SE,135,0.0,4.0,88,0.00,,---,0.00,VWS V14.01,2013-06-15 06:45:00,
2013-06-14 23:50:00,60.8,57.0,29.88,SSE,153,1.0,3.0,88,0.00,,,0.00,weatherlink.com 1.10,2013-06-15 06:50:00,